Regional Weather Roundup
Issued by NWS

Home | Current Version | Previous Version | Graphics & Text | Print | Product List | Glossary On
Versions: 1 2 3 4 5 6 7 8 9 10 11 12 13 14 15 16 17 18 19 20 21 22 23 24 25 26 27 28 29 30 31 32 33 34 35 36 37 38 39 40 41 42 43 44 45 46 47 48 49 50
643
ASUS45 KBOU 250807
RWRCO

WEATHER ROUNDUP FOR COLORADO
NATIONAL WEATHER SERVICE DENVER/BOULDER CO
200 AM MDT THU MAY 25 2017

NOTE: "FAIR" INDICATES FEW OR NO CLOUDS BELOW 12000 FEET WITH NO
SIGNIFICANT WEATHER AND/OR OBSTRUCTIONS TO VISIBILITY.

COZ001>005-013-030-031-250900-
...NORTHWEST COLORADO...

CITY           SKY/WX    TMP DP  RH WIND       PRES   REMARKS
CRAIG          CLOUDY    63  35  35 W15G26    29.70R
HAYDEN         MOCLDY    61  34  36 W18G24    29.71R
MEEKER         MOCLDY    61  37  41 S5G16     29.70F
RABBIT EARS PA CLOUDY    43  30  61 W8G26     29.91S
STEAMBOAT SPGS CLOUDY    51  40  64 N5        29.72R
WALDEN           N/A     54  32  43 SW12G20   29.77R
$$

COZ006>008-011-250900-
...WEST CENTRAL VALLEYS...

CITY           SKY/WX    TMP DP  RH WIND       PRES   REMARKS
GRAND JUNCTION FAIR      70  33  25 N3        29.60S
MONTROSE       FAIR      57  30  35 E8        29.71R
EAGLE          CLOUDY    59  38  45 W9        29.75R
RIFLE          FAIR      69  35  28 NW17G32   29.65S
DELTA          FAIR      64  31  28 E3        29.64S
NUCLA          FAIR      68  21  17 S7        29.75S
$$

COZ017>023-064>068-250900-
...SOUTHWEST COLORADO...

CITY           SKY/WX    TMP DP  RH WIND       PRES   REMARKS
DURANGO        FAIR      47  29  49 N6        29.83S
CORTEZ         FAIR      63  28  26 S12       29.77R
PAGOSA SPRINGS FAIR      44  26  47 CALM      29.89S
TELLURIDE      FAIR      59  20  22 W8G20     29.97S
WOLF CREEK PAS FAIR      39  19  45 S17G23    30.16F
$$

COZ009-010-012-014-032>034-037-058>063-250900-
...CENTRAL COLORADO...

CITY           SKY/WX    TMP DP  RH WIND       PRES   REMARKS
ASPEN          MOCLDY    57  31  37 S15G24    29.78F
BUENA VISTA    FAIR      48  33  56 CALM      29.81F
COPPER MTN     FAIR      43  27  52 W15G30    30.04F
BERTHOUD PASS  MOCLDY    32  23  69 W29G46    30.03F WCI  18
COTTONWOOD PAS MOCLDY    54  23  30 SE5       29.93F
GUNNISON       FAIR      46  31  55 N7        29.82F
KREMMLING      FAIR      63  32  31 SW9       29.75R
LEADVILLE      FAIR      46  26  45 S9        29.91F
MONARCH PASS   MOCLDY    41  19  42 SW32G39   30.15S
SALIDA         FAIR      56  26  31 W6        29.85F
SUNLIGHT       CLOUDY    43  27  52 SW14G32   29.99R
WILKERSON PASS FAIR      43  27  52 W6        30.03F
$$

COZ069>075-250900-
...SAN LUIS VALLEY/SANGRE DE CRISTO MOUNTAINS...

CITY           SKY/WX    TMP DP  RH WIND       PRES   REMARKS
ALAMOSA        FAIR      45  30  55 S9        29.83F
DEL NORTE      FAIR      46  22  40 W12       29.86S
LA VETA PASS   FAIR      45  21  39 MISG      30.08F
SAGUACHE       FAIR      43  25  49 N5        29.85F
$$

COZ035-036-038>040-250900-
...NORTHERN COLORADO FRONT RANGE...

CITY           SKY/WX    TMP DP  RH WIND       PRES   REMARKS
DENVER INTL AP FAIR      64  34  32 SW15      29.58F
DMNS CITY PARK   N/A     67  32  26 SE7       29.58F
AURORA         PTCLDY    61  33  35 SW13      29.62F
FRONT RANGE AP FAIR      64  34  32 SW12      29.60F
ERIE MUNI ARPT FAIR      67  33  28 SW13G20   29.56F
BOULDER MUN AP FAIR      64  34  32 SW8       29.57S
CENTENNIAL     FAIR      63  33  32 SW8       29.63F
BROOMFIELD     FAIR      68  34  28 SW13      29.61F
FORT COLLINS   FAIR      62  39  42 S6        29.54F
LONGMONT       FAIR      66  36  32 S6        29.55F
$$

COZ041-046-047-076>085-087-088-250900-
...PIKES PEAK/PALMER DIVIDE AND SOUTHERN FOOTHILLS...

CITY           SKY/WX    TMP DP  RH WIND       PRES   REMARKS
COLO. SPRINGS  FAIR      59  33  37 E8        29.67F
A. F. ACADEMY  FAIR      61  29  29 N6        29.67F
SCHRIEVER AFB  FAIR      57  37  46 NE5       29.67F
CHEYENNE MTN   FAIR      64  28  26 S6        29.65F
ELLICOTT       FAIR     N/A N/A N/A CALM      29.66F
FALCON         FAIR      55  30  38 W9        29.72F
FORT CARSON    FAIR      59  38  45 CALM      29.63F
LIMON          FAIR      42  40  92 CALM      29.62F
MONUMENT HILL  FAIR      52  32  46 W9        29.74F
CANON CITY     NOT AVBL
WALSENBURG     FAIR      55  36  47 SW10      29.69F
TRINIDAD       FAIR      61  30  31 SW20      29.67F
$$

COZ042>045-048>051-090-091-250900-
...NORTHEAST COLORADO...

CITY           SKY/WX    TMP DP  RH WIND       PRES   REMARKS
GREELEY ARPT   FAIR      56  44  64 SW7       29.52F
AKRON          FAIR      60  42  51 S14       29.52F
BURLINGTON     FAIR      55  46  71 S18       29.56F
WRAY           FAIR      59  45  58 W7        29.51F
YUMA           FAIR      54  43  66 S13       29.50F
STERLING       FAIR      55  46  71 SW8       29.47F
HOLYOKE        NOT AVBL
FORT MORGAN    FAIR      57  43  58 W9        29.54R
$$

COZ086-089-092>099-250900-
...SOUTHEAST COLORADO...

CITY           SKY/WX    TMP DP  RH WIND       PRES   REMARKS
PUEBLO         FAIR      55  45  68 E3        29.58F
LA JUNTA       FAIR      57  46  66 CALM      29.55S
LAMAR          FAIR      51  46  83 E7        29.53F
SPRINGFIELD      N/A     54  40  59 S6        29.59F
$$




USA.gov is the U.S. government's official web portal to all federal, state and local government web resources and services.